Explorer 31

operational
NORAD ID: 1806 Int'l Des: 1965-098 Owner: GSFC Country: US
LEOELLIPTICAL

关于 Explorer 31

正在加载描述...

实时位置

正在加载3D地球...

即将过境

高度历史

Altitude vs Time

uPlot chart will show altitude changes over time

两行轨道根数

1 1806U 65098B 26071.06955574 .00000276 00000-0 97326-4 0 9996
2 1806 79.7724 69.9325 1422654 324.9465 26.5478 12.08260835636961
Epoch: Mar 12, 2026 • Age: 16 hours

当前状态

高度 2719.8 km
速度 6.17 km/s
星下点 53.13°N, 179.1°W
类型 other

大型星座

Loading constellations...